changsha , China , ASIA

  • Monday
    January 16

      Shower

      41 °F

      No wind

       

  • Tuesday
    January 17

    Shower  Light rain

    45 °F  41 °F

    No wind  No wind

        

  • Wednesday
    January 18

    Light rain  Light rain

    45 °F  41 °F

    No wind  North

        

  • Thursday
    January 19

    Light rain  Cloudy

    45 °F  41 °F

    Northwest  North

    3~4L   3~4L 

  • Friday
    January 20

    Cloudy  Cloudy

    50 °F  37 °F

    North  North

    3~4L   3~4L 

  • Saturday
    January 21

    Cloudy  Cloudy

    45 °F  36 °F

    North  North

        

  • Sunday
    January 22

    Cloudy  Sunny

    54 °F  36 °F

    North  North

        

Date   Weather Temperature Humidity Total_rain Visibility Wind
23:00 Shower 42°F 93.9% 0.1mm 999.9km Northwest  1.7m/s
02:00 Shower 42°F 95.2% 0.1mm 999.9km Northwest  1.4m/s
05:00 Shower 41°F 96.6% 0.1mm 999.9km Northwest  1.6m/s
08:00 Shower 41°F 97.9% 0.1mm 999.9km Northwest  1.4m/s
11:00 Cloudy 43°F 90.3% 0mm 999.9km Northwest  1.1m/s
14:00 Overcast 44°F 88.5% 0mm 999.9km Northwest  0.8m/s
17:00 Shower 43°F 92.6% 0.2mm 999.9km Northwest  1.2m/s
20:00 Shower 43°F 85.1% 0.5mm 999.9km Northwest  1.5m/s
23:00 Light rain 42°F 97.6% 0.6mm 999.9km Northwest  1.4m/s
02:00 Light rain 42°F 97.9% 0.5mm 999.9km Northwest  1.3m/s
05:00 Light rain 42°F 98.8% 0.5mm 999.9km Northwest  1.1m/s
08:00 Light rain 41°F 99.5% 0.3mm 999.9km Northeast  0.9m/s
11:00 Light rain 43°F 96.2% 0.2mm 999.9km Northwest  1.0m/s
14:00 Light rain 43°F 93.2% 0.5mm 999.9km Northwest  1.2m/s
17:00 Light rain 44°F 96.6% 1.3mm 999.9km Northwest  1.7m/s
20:00 Light rain 43°F 88.2% 1.5mm 999.9km Northwest  1.7m/s
23:00 Light rain 44°F 92.3% 0.9mm 999.9km Northwest  1.8m/s
02:00 Light rain 43°F 92% 0.6mm 999.9km Northwest  1.7m/s
05:00 Light rain 42°F 94.4% 1.1mm 999.9km Northwest  2.2m/s
08:00 Light rain 41°F 93.5% 1.3mm 999.9km Northwest  2.3m/s
11:00 Light rain 43°F 92.6% 2.3mm 999.9km Northwest  3.1m/s
14:00 Light rain 43°F 90% 2.3mm 999.9km Northwest  3.2m/s
17:00 Light rain 43°F 81.5% 2.3mm 999.9km Northeast  3.6m/s
20:00 Light rain 43°F 75.7% 2.3mm 999.9km Northeast  2.9m/s
23:00 Cloudy 45°F 89.7% 0mm 999.9km Northeast  3.1m/s
02:00 Cloudy 43°F 79.6% 0mm 999.9km Northeast  3.3m/s
05:00 Cloudy 42°F 75% 0mm 999.9km Northeast  3.0m/s
08:00 Cloudy 41°F 74.7% 0mm 999.9km Northeast  2.2m/s
11:00 Cloudy 49°F 74.4% 0mm 999.9km Northeast  1.5m/s
14:00 Cloudy 47°F 71.1% 0mm 999.9km Northeast  1.3m/s
17:00 Cloudy 48°F 66.9% 0mm 999.9km Northeast  1.4m/s
20:00 Cloudy 50°F 62.7% 0mm 999.9km Northeast  1.1m/s
23:00 Cloudy 44°F 81.5% 0mm 999.9km Northeast  1.0m/s
02:00 Cloudy 41°F 81.8% 0mm 999.9km Northeast  1.3m/s
05:00 Cloudy 38°F 82.8% 0mm 999.9km Northeast  1.2m/s
08:00 Cloudy 38°F 87.2% 0mm 999.9km Northeast  1.3m/s
11:00 Cloudy 44°F 94.3% 0mm 999.9km Northwest  2.5m/s
14:00 Cloudy 43°F 90.6% 0mm 999.9km Northwest  2.3m/s
17:00 Cloudy 42°F 89.3% 0mm 999.9km Northwest  2.0m/s
20:00 Cloudy 41°F 87.9% 0mm 999.9km Northwest  2.1m/s
23:00 Cloudy 38°F 89.8% 0mm 999.9km Northwest  1.9m/s
02:00 Cloudy 37°F 83.4% 0mm 999.9km Northeast  2.7m/s
05:00 Cloudy 36°F 77% 0mm 999.9km Northwest  2.0m/s
08:00 Cloudy 40°F 74.6% 0mm 999.9km Northeast  2.3m/s
11:00 Cloudy 46°F 72.2% 0mm 999.9km Northwest  2.8m/s
14:00 Cloudy 53°F 66.8% 0mm 999.9km Northwest  2.3m/s
17:00 Cloudy 49°F 63.8% 0mm 999.9km Northwest  2.5m/s
20:00 Cloudy 48°F 60.8% 0mm 999.9km Northwest  2.2m/s
23:00 Sunny 44°F 89.6% 0mm 999.9km Northwest  2.9m/s
02:00 Sunny 36°F 85.9% 0mm 999.9km Northwest  1.3m/s
05:00 Sunny 37°F 82.2% 0mm 999.9km Northeast  2.5m/s